Regional Weather Roundup
Issued by NWS

Home | Current Version | Previous Version | Text Only | Print | Product List | Glossary Off
Versions: 1 2 3 4 5 6 7 8 9 10 11 12 13 14 15 16 17 18 19 20 21 22 23 24 25 26 27 28 29 30 31 32 33 34 35 36 37 38 39 40 41 42 43 44 45 46 47 48 49 50

379
ASUS43 KFSD 300802
RWRSD

WEATHER ROUNDUP FOR SOUTH DAKOTA
NATIONAL WEATHER SERVICE SIOUX FALLS SD
300 AM CDT TUE AUG 30 2016

NOTE: "FAIR" INDICATES FEW OR NO CLOUDS BELOW 12,000 FEET WITH NO
SIGNIFICANT WEATHER AND/OR OBSTRUCTIONS TO VISIBILITY.


SDZ001>005-009-010-012>017-300900-
NORTHWEST AND NORTH CENTRAL SOUTH DAKOTA

CITY           SKY/WX    TMP DP  RH WIND       PRES   REMARKS
BUFFALO          N/A     62  51  67 SE6       30.20R
FAITH            N/A     59  54  83 E7        30.23F
MOBRIDGE       CLEAR     61  53  75 NE12      30.20S
$$

SDZ012>016-024>037-041>051-057-063-072>074-300900-
SOUTHWEST AND SOUTH CENTRAL SOUTH DAKOTA

CITY           SKY/WX    TMP DP  RH WIND       PRES   REMARKS
RAPID CTY ARPT CLEAR     60  58  92 CALM      30.26S
PIERRE         PTCLDY    66  59  78 NE13      30.17S
CUSTER         CLOUDY    60  57  89 NW3       30.38S
ELLSWORTH AFB  CLEAR     68  63  83 CALM      30.26S
PHILIP         CLEAR     65  63  93 NE7       30.19F
PINE RIDGE     CLEAR     57  57 100 E3        30.24S
WINNER         FAIR      69  64  84 W6        30.18S
$$

SDZ004>011-016>023-039-040-300900-
NORTHEAST SOUTH DAKOTA

CITY           SKY/WX    TMP DP  RH WIND       PRES   REMARKS
ABERDEEN       MOCLDY    60  56  86 E5        30.22R
WATERTOWN      CLOUDY    69  64  84 N5        30.22S
$$

SDZ017-020-022-023-036>040-048>070-300900-
SOUTHEAST SOUTH DAKOTA

CITY           SKY/WX    TMP DP  RH WIND       PRES   REMARKS
SIOUX FALLS    CLOUDY    69  66  90 N5        30.18S
HURON          PTCLDY    69  67  93 E7        30.17S
CHAMBERLAIN    PTCLDY    70  68  93 CALM      30.16S
MITCHELL       MOCLDY    72  67  84 SW8       30.16S
YANKTON        CLOUDY    70  63  78 W6        30.14F
$$

ABBREVIATIONS USED IN REMARKS
   TC - TEMPERATURE IN CELSIUS
  WCI - WIND CHILL INDEX
   HX - HEAT INDEX
  VSB - VISIBILITY





USA.gov is the U.S. government's official web portal to all federal, state and local government web resources and services.